Weather History for Del Rio, TX

Change the Weather History Date:

Sunday, July 28, 2013

  Actual Average Record
Temperature  
Mean Temperature 89 °F 86 °F  
Max Temperature 100 °F 97 °F 107 °F (1980)
Min Temperature 78 °F 76 °F 66 °F (1994)
Degree Days  
Heating Degree Days 0 0  
Month to date heating degree days 0 0  
Since 1 June heating degree days 0 0  
Since 1 July heating degree days 0 0  
Cooling Degree Days 24 21  
Month to date cooling degree days 584 582  
Year to date cooling degree days 2115 1912  
Since 1 June cooling degree days 1209 1153  
Growing Degree Days 40 (Base 50)    
Moisture  
Dew Point 69 °F    
Average Humidity 52    
Maximum Humidity 69    
Minimum Humidity 35    
Precipitation  
Precipitation T in 0.05 in 2.95 in (2005)
Month to date precipitation 2.77 1.62  
Year to date precipitation 7.75 11.17  
Sea Level Pressure  
Sea Level Pressure 29.83 in    
Wind  
Wind Speed 9 mph (SE)    
Max Wind Speed 21 mph    
Max Gust Speed 26 mph    
Visibility 10 miles    
Events      
T = Trace of Precipitation, MM = Missing Value Source: NWS Daily Summary

Daily Weather History Graph

Daily Weather History Graph

Search for Another Location

Airport:

Trip Planner

Search our weather history database for the weather conditions in past years. The results will help you decide how hot, cold, wet, or windy it might be!

Date:

Astronomy

Jul. 28, 2013 Rise Set
Actual Time 7:01 AM CDT 8:38 PM CDT
Civil Twilight 6:35 AM CDT 9:04 PM CDT
Nautical Twilight 6:04 AM CDT 9:35 PM CDT
Astronomical Twilight 5:31 AM CDT 10:07 PM CDT
Moon 12:00 AM CDT (7/28) 1:09 PM CDT (7/28)
Length of Visible Light 14h 28m
Length of Day
13h 36m
Waning Gibbous, 60% of the Moon is Illuminated
Jul 28
Waning Gibbous
Jul 29
Last Quarter
Aug 6
New
Aug 14
First Quarter
Aug 20
Full

Hourly Weather History & Observations

Time (CDT) Temp. Heat Index Dew Point Humidity Pressure Visibility Wind Dir Wind Speed Gust Speed Precip Events Conditions
12:53 AM 86.0 °F 90.1 °F 69.1 °F 57% 29.85 in 10.0 mi ESE 8.1 mph - N/A   Scattered Clouds
1:53 AM 84.9 °F 89.4 °F 70.0 °F 61% 29.86 in 10.0 mi ESE 6.9 mph - N/A   Mostly Cloudy
2:53 AM 82.9 °F 87.5 °F 71.1 °F 67% 29.86 in 10.0 mi SE 6.9 mph - N/A   Mostly Cloudy
3:53 AM 82.9 °F 87.5 °F 71.1 °F 67% 29.84 in 10.0 mi ESE 6.9 mph - N/A   Scattered Clouds
4:53 AM 82.0 °F 84.9 °F 68.0 °F 62% 29.83 in 10.0 mi ESE 9.2 mph - N/A   Clear
5:53 AM 80.1 °F 82.7 °F 68.0 °F 67% 29.83 in 10.0 mi East 8.1 mph - N/A   Clear
6:53 AM 79.0 °F - 66.9 °F 66% 29.85 in 10.0 mi ESE 8.1 mph - N/A   Clear
7:53 AM 79.0 °F - 66.9 °F 66% 29.87 in 10.0 mi East 6.9 mph - N/A   Clear
8:53 AM 81.0 °F 83.8 °F 68.0 °F 65% 29.88 in 10.0 mi East 9.2 mph - N/A   Clear
9:53 AM 82.9 °F 86.5 °F 69.1 °F 63% 29.88 in 10.0 mi SE 11.5 mph - N/A   Clear
10:53 AM 84.9 °F 89.4 °F 70.0 °F 61% 29.88 in 10.0 mi South 9.2 mph - N/A   Clear
11:53 AM 88.0 °F 93.8 °F 71.1 °F 57% 29.87 in 10.0 mi SE 9.2 mph - N/A   Clear
12:53 PM 91.0 °F 96.6 °F 70.0 °F 50% 29.86 in 10.0 mi SE 9.2 mph - N/A   Clear
1:53 PM 95.0 °F 101.3 °F 70.0 °F 44% 29.83 in 10.0 mi East 11.5 mph 16.1 mph N/A   Clear
2:53 PM 96.1 °F 101.0 °F 68.0 °F 40% 29.80 in 10.0 mi SSE 8.1 mph 17.3 mph N/A   Clear
3:53 PM 98.1 °F 103.0 °F 68.0 °F 37% 29.77 in 10.0 mi SSE 13.8 mph 23.0 mph N/A   Partly Cloudy
4:53 PM 98.1 °F 102.4 °F 66.9 °F 36% 29.75 in 10.0 mi SSE 15.0 mph - N/A   Clear
5:53 PM 99.0 °F 103.5 °F 66.9 °F 35% 29.75 in 10.0 mi SSE 9.2 mph - N/A   Unknown
6:53 PM 96.1 °F 101.0 °F 68.0 °F 40% 29.76 in 10.0 mi SSW 20.7 mph 26.5 mph N/A   Unknown
7:05 PM 89.6 °F 94.7 °F 69.8 °F 52% 29.84 in 9.0 mi SW 11.5 mph 26.5 mph N/A   Unknown
7:53 PM 86.0 °F 90.1 °F 69.1 °F 57% 29.78 in 10.0 mi South 12.7 mph - N/A   Unknown
8:53 PM 86.0 °F 90.7 °F 70.0 °F 59% 29.76 in 10.0 mi ESE 5.8 mph - 0.00 in   Unknown
9:53 PM 84.9 °F 90.1 °F 71.1 °F 63% 29.78 in 10.0 mi Calm Calm - N/A   Unknown
10:53 PM 84.9 °F 90.1 °F 71.1 °F 63% 29.82 in 10.0 mi West 4.6 mph - N/A   Unknown
11:53 PM 84.9 °F 90.7 °F 72.0 °F 65% 29.82 in 10.0 mi Calm Calm - N/A   Unknown